GW4147 Weather Reports


Display with metric or nautical units.
time (UTC)temp
F
wind
direction
speed
MPH
gust
MPH
rain 1hr
in
rain 24hr
in
rain mn
in
humidity
%
barometer
mb
20260502211910 76 79 1.0 5.0 0.00 0.00 0.00 35 1020.7
20260502211405 76 302 4.0 5.0 0.00 0.00 0.00 33 1020.8
20260502210903 76 295 7.0 9.0 0.00 0.00 0.00 34 1020.8
20260502210400 76 259 4.0 5.0 0.00 0.00 0.00 34 1020.6
20260502205857 76 294 5.0 8.0 0.00 0.00 0.00 34 1020.9
20260502205353 76 343 5.0 7.0 0.00 0.00 0.00 33 1021.0
20260502204850 77 354 3.0 5.0 0.00 0.00 0.00 33 1021.2
20260502204347 76 197 3.0 5.0 0.00 0.00 0.00 33 1021.2
20260502203845 75 255 2.0 5.0 0.00 0.00 0.00 31 1021.2
20260502203342 76 247 4.0 4.0 0.00 0.00 0.00 34 1021.4
20260502202838 75 223 4.0 5.0 0.00 0.00 0.00 35 1021.6
20260502202335 76 260 2.0 4.0 0.00 0.00 0.00 33 1021.5
20260502201833 75 315 5.0 9.0 0.00 0.00 0.00 34 1021.5
20260502201329 75 279 5.0 6.0 0.00 0.00 0.00 32 1021.6
20260502200825 75 294 5.0 5.0 0.00 0.00 0.00 33 1021.8
20260502200321 75 33 3.0 6.0 0.00 0.00 0.00 33 1021.7
20260502195820 75 355 5.0 7.0 0.00 0.00 0.00 37 1021.7
20260502195316 75 336 6.0 8.0 0.00 0.00 0.00 35 1021.8
20260502194812 75 340 5.0 9.0 0.00 0.00 0.00 34 1021.8
20260502194309 75 353 5.0 6.0 0.00 0.00 0.00 34 1022.0
20260502193805 74 345 5.0 5.0 0.00 0.00 0.00 36 1021.8
20260502193303 74 240 5.0 6.0 0.00 0.00 0.00 35 1021.8
20260502192758 74 178 4.0 8.0 0.00 0.00 0.00 34 1022.0
20260502192255 73 256 4.0 4.0 0.00 0.00 0.00 35 1022.1
20260502191752 73 316 3.0 7.0 0.00 0.00 0.00 35 1022.2
20260502191250 73 174 2.0 6.0 0.00 0.00 0.00 37 1022.1
20260502190747 73 208 4.0 7.0 0.00 0.00 0.00 33 1022.2
20260502190244 73 47 3.0 5.0 0.00 0.00 0.00 38 1022.4
20260502185739 73 318 5.0 7.0 0.00 0.00 0.00 33 1022.4
20260502185235 73 352 4.0 6.0 0.00 0.00 0.00 34 1022.4
20260502184732 73 322 6.0 8.0 0.00 0.00 0.00 34 1022.5
20260502184228 72 354 7.0 8.0 0.00 0.00 0.00 36 1022.5
20260502183725 73 335 3.0 6.0 0.00 0.00 0.00 34 1022.5
20260502183220 72 343 5.0 11.0 0.00 0.00 0.00 34 1022.6
20260502182716 74 104 3.0 6.0 0.00 0.00 0.00 31 1022.6
20260502182211 73 351 1.0 3.0 0.00 0.00 0.00 31 1022.7
20260502181708 72 46 1.0 5.0 0.00 0.00 0.00 34 1022.7
20260502181203 72 238 4.0 7.0 0.00 0.00 0.00 31 1023.0
20260502180659 72 329 5.0 9.0 0.00 0.00 0.00 29 1022.9
20260502180156 72 135 4.0 5.0 0.00 0.00 0.00 34 1023.1
20260502170120 70 45 1.0 5.0 0.00 0.00 0.00 37 1023.7
20260502164101 69 229 3.0 4.0 0.00 0.00 0.00 34 1023.6
20260502163556 70 278 6.0 7.0 0.00 0.00 0.00 33 1023.6
20260502163054 70 348 5.0 5.0 0.00 0.00 0.00 33 1023.7
20260502162550 69 358 4.0 6.0 0.00 0.00 0.00 38 1023.6
20260502162048 69 337 1.0 7.0 0.00 0.00 0.00 34 1023.7
20260502161544 69 353 4.0 6.0 0.00 0.00 0.00 35 1023.7
20260502161042 69 323 3.0 8.0 0.00 0.00 0.00 37 1023.5
20260502160540 69 6 2.0 6.0 0.00 0.00 0.00 38 1023.8
20260502151953 66 39 2.0 3.0 0.00 0.00 0.00 49 1023.4
20260502151449 66 302 2.0 6.0 0.00 0.00 0.00 51 1023.5
20260502150947 66 352 5.0 5.0 0.00 0.00 0.00 50 1023.5
20260502150444 66 354 3.0 4.0 0.00 0.00 0.00 54 1023.6
20260502130329 55 10 2.0 4.0 0.00 0.00 0.00 81 1022.5
20260502123815 51 327 0.0 2.0 0.00 0.00 0.00 91 1022.3
20260502123312 51 313 1.0 3.0 0.00 0.00 0.00 92 1022.4
20260502122809 51 337 1.0 2.0 0.00 0.00 0.00 94 1022.2
20260502122306 50 27 1.0 3.0 0.00 0.00 0.00 94 1021.9
20260502121803 50 326 2.0 3.0 0.00 0.00 0.00 95 1022.0
20260502121300 50 22 0.0 1.0 0.00 0.00 0.00 95 1021.8
20260502120757 49 353 0.0 2.0 0.00 0.00 0.00 95 1021.7
20260502120254 48 18 0.0 2.0 0.00 0.00 0.00 95 1021.7
20260502115752 48 321 0.0 2.0 0.00 0.00 0.00 95 1021.7
20260502115248 48 329 0.0 2.0 0.00 0.00 0.00 95 1021.2
20260502114744 48 23 1.0 2.0 0.00 0.00 0.00 95 1021.4
20260502114241 49 35 2.0 2.0 0.00 0.00 0.00 95 1021.2
20260502113738 49 22 2.0 2.0 0.00 0.00 0.00 95 1021.1
20260502113236 49 23 1.0 3.0 0.00 0.00 0.00 95 1021.2
20260502112734 48 17 1.0 2.0 0.00 0.00 0.00 94 1021.1
20260502112231 48 143 0.0 2.0 0.00 0.00 0.00 94 1021.0
20260502111728 48 25 3.0 5.0 0.00 0.00 0.00 94 1021.0
20260502111226 49 16 0.0 2.0 0.00 0.00 0.00 94 1020.9
20260502110723 49 57 0.0 2.0 0.00 0.00 0.00 94 1020.8
20260502110221 49 299 2.0 3.0 0.00 0.00 0.00 94 1020.9
20260502105719 49 308 2.0 3.0 0.00 0.00 0.00 94 1020.9
20260502105215 49 8 2.0 3.0 0.00 0.00 0.00 94 1020.9
20260502104713 49 355 2.0 3.0 0.00 0.00 0.00 95 1020.7
20260502104210 48 28 2.0 2.0 0.00 0.00 0.00 94 1020.7
20260502103707 48 84 0.0 1.0 0.00 0.00 0.00 94 1020.7
20260502103205 48 76 1.0 2.0 0.00 0.00 0.00 94 1020.3
20260502102702 49 34 0.0 1.0 0.00 0.00 0.00 93 1020.4
20260502102158 49 44 0.0 1.0 0.00 0.00 0.00 93 1020.3
20260502101656 49 42 0.0 2.0 0.00 0.00 0.00 92 1020.3
20260502101154 49 91 1.0 1.0 0.00 0.00 0.00 92 1020.1
20260502100652 50 31 0.0 1.0 0.00 0.00 0.00 92 1020.3
20260502100150 50 20 0.0 2.0 0.00 0.00 0.00 92 1020.2
20260502091124 51 294 1.0 2.0 0.00 0.00 0.00 89 1020.4
20260502090621 51 281 2.0 3.0 0.00 0.00 0.00 89 1020.3
20260502090119 51 294 3.0 3.0 0.00 0.00 0.00 89 1020.4
20260502071516 54 147 0.0 2.0 0.00 0.00 0.00 82 1020.3
20260502071014 54 266 2.0 3.0 0.00 0.00 0.00 82 1020.4
20260502070512 55 253 2.0 3.0 0.00 0.00 0.00 81 1020.6
20260502070010 54 253 3.0 4.0 0.00 0.00 0.00 82 1020.4
20260502065508 54 287 2.0 3.0 0.00 0.00 0.00 81 1020.5
20260502065006 54 236 2.0 2.0 0.00 0.00 0.00 82 1020.5
20260502064504 54 66 0.0 1.0 0.00 0.00 0.00 81 1020.4
20260502064000 54 241 2.0 3.0 0.00 0.00 0.00 81 1020.6
20260502063459 54 213 1.0 3.0 0.00 0.00 0.00 81 1020.5
20260502062955 55 238 2.0 3.0 0.00 0.00 0.00 79 1020.7
20260502062452 55 224 0.0 2.0 0.00 0.00 0.00 79 1020.5
20260502061951 55 198 1.0 3.0 0.00 0.00 0.00 79 1020.6
20260502061449 55 189 2.0 3.0 0.00 0.00 0.00 78 1020.5
20260502060944 55 197 3.0 5.0 0.00 0.00 0.00 79 1020.7
20260502060440 55 207 1.0 3.0 0.00 0.00 0.00 80 1020.5
20260502055937 55 215 1.0 3.0 0.00 0.00 0.00 80 1020.6
20260502055435 55 219 1.0 2.0 0.00 0.00 0.00 79 1020.5
20260502054929 56 181 0.0 1.0 0.00 0.00 0.00 79 1020.4
20260502054426 56 227 1.0 2.0 0.00 0.00 0.00 78 1020.4
20260502053924 56 217 0.0 2.0 0.00 0.00 0.00 78 1020.5
20260502053421 56 210 1.0 2.0 0.00 0.00 0.00 77 1020.6
20260502052918 57 219 1.0 2.0 0.00 0.00 0.00 77 1020.5
20260502052416 57 201 2.0 4.0 0.00 0.00 0.00 76 1020.5
20260502051914 57 195 2.0 4.0 0.00 0.00 0.00 77 1020.6
20260502051412 56 209 2.0 3.0 0.00 0.00 0.00 78 1020.4
20260502050909 56 201 2.0 4.0 0.00 0.00 0.00 79 1020.4
20260502050405 55 199 2.0 3.0 0.00 0.00 0.00 82 1020.2
20260502045903 54 131 0.0 3.0 0.00 0.00 0.00 81 1020.1
20260502045359 54 130 2.0 3.0 0.00 0.00 0.00 81 1020.3
20260502044856 55 168 0.0 2.0 0.00 0.00 0.00 80 1020.2
20260502044352 55 191 0.0 2.0 0.00 0.00 0.00 79 1020.1
20260502043849 55 202 2.0 2.0 0.00 0.00 0.00 80 1020.1
20260502043347 56 120 2.0 2.0 0.00 0.00 0.00 79 1020.3
20260502042846 56 169 1.0 2.0 0.00 0.00 0.00 79 1020.4
20260502042344 56 274 3.0 3.0 0.00 0.00 0.00 80 1020.1
20260502041841 56 102 1.0 2.0 0.00 0.00 0.00 80 1020.2
20260502041338 57 256 0.0 1.0 0.00 0.00 0.00 79 1020.2
20260502040835 57 176 1.0 2.0 0.00 0.00 0.00 78 1020.2
20260502040332 57 93 0.0 3.0 0.00 0.00 0.00 77 1020.2
20260502035828 57 120 2.0 3.0 0.00 0.00 0.00 78 1020.2
20260502035325 57 235 0.0 2.0 0.00 0.00 0.00 77 1020.0
20260502034822 57 113 0.0 2.0 0.00 0.00 0.00 76 1020.2
20260502034320 57 31 2.0 3.0 0.00 0.00 0.00 78 1020.0
20260502033819 57 181 0.0 2.0 0.00 0.00 0.00 78 1020.1
20260502033316 57 193 0.0 0.0 0.00 0.00 0.00 76 1020.3
20260502032813 57 172 2.0 2.0 0.00 0.00 0.00 78 1020.3
20260502032309 57 271 0.0 1.0 0.00 0.00 0.00 80 1020.0
20260502031806 57 113 0.0 1.0 0.00 0.00 0.00 78 1020.1
20260502031304 57 183 0.0 2.0 0.00 0.00 0.00 78 1019.9
20260502030803 57 217 0.0 1.0 0.00 0.00 0.00 78 1019.9
20260502030300 57 315 0.0 1.0 0.00 0.00 0.00 78 1019.8
20260502025757 57 50 0.0 1.0 0.00 0.00 0.00 77 1019.9
20260502025255 58 181 1.0 2.0 0.00 0.00 0.00 77 1019.8
20260502024753 58 48 0.0 2.0 0.00 0.00 0.00 76 1019.9
20260502024250 58 246 0.0 1.0 0.00 0.00 0.00 76 1019.7
20260502023748 58 76 0.0 0.0 0.00 0.00 0.00 77 1019.7
20260502023245 58 119 0.0 1.0 0.00 0.00 0.00 77 1019.7
20260502022743 59 180 1.0 2.0 0.00 0.00 0.00 76 1019.5
20260502022239 59 168 2.0 2.0 0.00 0.00 0.00 74 1019.5
20260502021737 59 322 0.0 0.0 0.00 0.00 0.00 73 1019.5
20260502021234 59 218 0.0 0.0 0.00 0.00 0.00 74 1019.4
20260502020731 59 217 0.0 0.0 0.00 0.00 0.00 74 1019.3
20260502020228 60 180 0.0 1.0 0.00 0.00 0.00 74 1019.3
20260502015726 60 184 0.0 1.0 0.00 0.00 0.00 72 1019.3
20260502015222 60 181 0.0 2.0 0.00 0.00 0.00 72 1018.9
20260502014720 61 306 0.0 0.0 0.00 0.00 0.00 71 1018.9
20260502014216 61 269 0.0 1.0 0.00 0.00 0.00 71 1018.6
20260502013713 61 309 0.0 0.0 0.00 0.00 0.00 70 1018.5
20260502013208 61 304 0.0 0.0 0.00 0.00 0.00 70 1018.4
20260502012705 61 269 0.0 1.0 0.00 0.00 0.00 71 1018.4
20260502012203 61 37 0.0 0.0 0.00 0.00 0.00 72 1018.3
20260502011659 61 37 0.0 0.0 0.00 0.00 0.00 72 1018.0
20260502011155 61 230 0.0 0.0 0.00 0.00 0.00 71 1017.9
20260502010653 61 215 0.0 1.0 0.00 0.00 0.00 70 1018.0
20260502010149 61 202 0.0 0.0 0.00 0.00 0.00 67 1018.1
20260502005647 61 202 0.0 0.0 0.00 0.00 0.00 68 1017.8
20260502005144 61 157 0.0 0.0 0.00 0.00 0.00 69 1017.8
20260502004640 61 147 0.0 0.0 0.00 0.00 0.00 71 1017.8
20260502004137 62 162 0.0 1.0 0.00 0.00 0.00 69 1017.7
20260502003635 62 217 0.0 0.0 0.00 0.00 0.00 67 1017.7
20260502003132 62 217 0.0 0.0 0.00 0.00 0.00 66 1017.6
20260502002628 63 205 0.0 1.0 0.00 0.00 0.00 63 1017.7
20260502002125 63 135 0.0 0.0 0.00 0.00 0.00 57 1017.3
20260502001623 63 60 0.0 0.0 0.00 0.00 0.00 57 1017.3
20260502001120 64 70 1.0 2.0 0.00 0.00 0.00 56 1017.4
20260502000618 64 68 0.0 2.0 0.00 0.00 0.00 57 1017.1
20260502000115 64 20 1.0 2.0 0.00 0.00 0.00 56 1017.1
20260501235611 64 141 0.0 3.0 0.00 0.00 0.00 54 1017.1
20260501235108 64 130 3.0 4.0 0.00 0.00 0.00 53 1017.1
20260501234603 64 83 1.0 3.0 0.00 0.00 0.00 54 1016.9
20260501234101 64 89 2.0 3.0 0.00 0.00 0.00 54 1016.9
20260501233559 64 105 2.0 2.0 0.00 0.00 0.00 53 1016.9
20260501233056 64 109 3.0 5.0 0.00 0.00 0.00 53 1016.8
20260501232552 65 73 0.0 3.0 0.00 0.00 0.00 53 1016.8
20260501232049 65 116 0.0 2.0 0.00 0.00 0.00 54 1016.6
20260501231547 65 89 0.0 2.0 0.00 0.00 0.00 56 1016.6
20260501231045 65 76 0.0 2.0 0.00 0.00 0.00 54 1016.7
20260501230543 65 231 0.0 2.0 0.00 0.00 0.00 55 1016.8
20260501230041 64 66 0.0 2.0 0.00 0.00 0.00 53 1016.9
20260501225538 65 144 2.0 2.0 0.00 0.00 0.00 53 1016.7
20260501225034 65 202 1.0 2.0 0.00 0.00 0.00 54 1016.7
20260501224532 64 92 2.0 3.0 0.00 0.00 0.00 53 1016.7
20260501224029 64 111 3.0 5.0 0.00 0.00 0.00 52 1016.8
20260501223525 65 91 4.0 5.0 0.00 0.00 0.00 51 1016.6
20260501223021 64 42 3.0 5.0 0.00 0.00 0.00 52 1016.7
20260501222518 64 105 2.0 5.0 0.00 0.00 0.00 52 1016.6
20260501222015 65 102 3.0 7.0 0.00 0.00 0.00 52 1016.5
20260501221511 65 108 3.0 5.0 0.00 0.00 0.00 52 1016.5
20260501221009 65 116 2.0 5.0 0.00 0.00 0.00 52 1016.3
20260501220507 65 87 2.0 4.0 0.00 0.00 0.00 53 1016.5
20260501220003 65 113 6.0 8.0 0.00 0.00 0.00 50 1016.3
20260501215459 65 99 3.0 6.0 0.00 0.00 0.00 49 1016.3
20260501214955 65 55 3.0 5.0 0.00 0.00 0.00 51 1016.6
20260501214450 65 81 5.0 7.0 0.00 0.00 0.00 51 1016.5
20260501213946 65 118 4.0 7.0 0.00 0.00 0.00 51 1016.6
20260501213444 65 85 6.0 10.0 0.00 0.00 0.00 50 1016.7
20260501212938 65 38 4.0 10.0 0.00 0.00 0.00 52 1016.7
20260501212436 65 57 5.0 9.0 0.00 0.00 0.00 51 1016.8